Weather History for Burlington, CO

Change the Weather History Date:

Monday, February 18, 2013

  Actual Average Record
Temperature  
Mean Temperature 28 °F 32 °F  
Max Temperature 44 °F 45 °F 74 °F (1997)
Min Temperature 11 °F 19 °F -11 °F (1942)
Degree Days  
Heating Degree Days 36    
Moisture  
Dew Point 15 °F    
Average Humidity 60    
Maximum Humidity 92    
Minimum Humidity 26    
Precipitation  
Precipitation T in 0.02 in 0.85 in (1971)
Month to date precipitation T 0.23  
Year to date precipitation 0.02 0.61  
Sea Level Pressure  
Sea Level Pressure 29.96 in    
Wind  
Wind Speed 20 mph (NW)    
Max Wind Speed 33 mph    
Max Gust Speed 43 mph    
Visibility 10 miles    
Events      
T = Trace of Precipitation, MM = Missing Value Source: NWS Daily Summary

Daily Weather History Graph

Daily Weather History Graph

Search for Another Location

Airport:

Trip Planner

Search our weather history database for the weather conditions in past years. The results will help you decide how hot, cold, wet, or windy it might be!

Date:

Astronomy

Feb. 18, 2013 Rise Set
Actual Time 6:36 AM MST 5:29 PM MST
Civil Twilight 6:09 AM MST 5:57 PM MST
Nautical Twilight 5:38 AM MST 6:28 PM MST
Astronomical Twilight 5:07 AM MST 6:59 PM MST
Moon 11:18 AM MST (2/18) 1:17 AM MST (2/18)
Length of Visible Light 11h 47m
Length of Day
10h 53m
First Quarter, 59% of the Moon is Illuminated
Feb 18
First Quarter
Feb 25
Full
Mar 4
Last Quarter
Mar 11
New
Mar 19
First Quarter

Hourly Weather History & Observations

Time (MST) Temp. Windchill Dew Point Humidity Pressure Visibility Wind Dir Wind Speed Gust Speed Precip Events Conditions
12:53 AM 33.1 °F 20.9 °F 21.0 °F 61% 29.64 in 10.0 mi NNW 21.9 mph 36.8 mph N/A   Clear
1:53 AM 30.0 °F 17.9 °F 21.0 °F 69% 29.67 in 10.0 mi NNW 18.4 mph 27.6 mph N/A   Clear
2:53 AM 28.9 °F 15.8 °F 19.9 °F 69% 29.68 in 10.0 mi NNW 20.7 mph 26.5 mph N/A   Clear
3:53 AM 28.0 °F 13.6 °F 19.0 °F 69% 29.73 in 10.0 mi NNW 24.2 mph 29.9 mph N/A   Clear
4:53 AM 26.1 °F 12.3 °F 18.0 °F 71% 29.79 in 10.0 mi NNW 19.6 mph 29.9 mph N/A   Clear
5:53 AM 28.0 °F 13.6 °F 19.0 °F 69% 29.83 in 10.0 mi NNW 24.2 mph 33.4 mph N/A   Overcast
6:53 AM 28.0 °F 14.3 °F 19.0 °F 69% 29.89 in 10.0 mi NNW 21.9 mph 27.6 mph N/A   Mostly Cloudy
7:53 AM 30.9 °F 17.2 °F 18.0 °F 59% 29.92 in 10.0 mi NNW 25.3 mph 33.4 mph N/A   Partly Cloudy
8:53 AM 33.1 °F 20.9 °F 18.0 °F 54% 29.94 in 10.0 mi NNW 21.9 mph 36.8 mph N/A   Clear
9:53 AM 37.0 °F 25.4 °F 16.0 °F 42% 29.95 in 10.0 mi North 25.3 mph 38.0 mph N/A   Partly Cloudy
10:53 AM 39.0 °F 26.6 °F 12.9 °F 34% 29.97 in 10.0 mi North 33.4 mph 42.6 mph N/A   Clear
11:53 AM 42.1 °F 33.3 °F 12.0 °F 29% 29.97 in 10.0 mi NNW 19.6 mph 38.0 mph N/A   Scattered Clouds
12:53 PM 41.0 °F 31.9 °F 10.0 °F 28% 29.96 in 10.0 mi North 19.6 mph 35.7 mph N/A   Scattered Clouds
1:53 PM 42.1 °F 32.1 °F 10.0 °F 27% 29.97 in 10.0 mi NNW 25.3 mph 32.2 mph N/A   Scattered Clouds
2:53 PM 43.0 °F 35.1 °F 10.0 °F 26% 29.98 in 10.0 mi North 17.3 mph 24.2 mph N/A   Mostly Cloudy
3:53 PM 41.0 °F 32.8 °F 9.0 °F 27% 30.00 in 10.0 mi NW 16.1 mph 20.7 mph N/A   Overcast
4:53 PM 36.0 °F 25.6 °F 19.0 °F 50% 30.05 in 10.0 mi North 18.4 mph 25.3 mph 0.00 in   Scattered Clouds
6:53 PM 25.0 °F 17.1 °F 19.9 °F 81% 30.13 in 10.0 mi North 6.9 mph - N/A   Clear
7:53 PM 17.1 °F 10.0 °F 15.1 °F 92% 30.17 in 10.0 mi WSW 4.6 mph - N/A   Clear
8:53 PM 15.1 °F 4.2 °F 10.9 °F 84% 30.19 in 10.0 mi WSW 8.1 mph - N/A   Clear
9:53 PM 15.1 °F 4.2 °F 12.0 °F 88% 30.19 in 10.0 mi West 8.1 mph - N/A   Clear
10:53 PM 15.1 °F 4.2 °F 12.0 °F 88% 30.19 in 10.0 mi West 8.1 mph - N/A   Clear
11:53 PM 12.9 °F 2.6 °F 10.0 °F 88% 30.19 in 10.0 mi West 6.9 mph - N/A   Clear